Time,TemperatureF,DewpointF,PressureIn,WindDirection,WindDirectionDegrees,WindSpeedMPH,WindSpeedGustMPH,Humidity,HourlyPrecipIn,Conditions,Clouds,dailyrainin,SoftwareType,DateUTC
2013-07-05 00:06:00,68.9,65.0,30.12,SE,146,1.0,-999.0,87,-99.99,,,0.02,weatherlink.com 1.10,2013-07-05 05:06:00,
2013-07-05 00:21:00,68.8,65.0,30.11,SSE,156,10.0,-999.0,87,-99.99,,,0.02,weatherlink.com 1.10,2013-07-05 05:21:00,
2013-07-05 00:36:00,68.9,65.0,30.11,SSE,155,7.0,-999.0,88,-99.99,,,0.02,weatherlink.com 1.10,2013-07-05 05:36:00,
2013-07-05 00:51:00,68.8,65.0,30.11,SSE,157,0.0,-999.0,87,-99.99,,,0.02,weatherlink.com 1.10,2013-07-05 05:51:00,
2013-07-05 01:06:00,68.7,65.0,30.11,SSE,158,5.0,-999.0,87,-99.99,,,0.02,weatherlink.com 1.10,2013-07-05 06:06:00,
2013-07-05 01:21:00,68.7,65.0,30.11,SSE,153,2.0,-999.0,87,-99.99,,,0.02,weatherlink.com 1.10,2013-07-05 06:21:00,
2013-07-05 01:36:00,68.6,65.0,30.11,SE,146,9.0,-999.0,87,-99.99,,,0.02,weatherlink.com 1.10,2013-07-05 06:36:00,
2013-07-05 01:51:00,68.6,65.0,30.10,SE,126,5.0,-999.0,87,-99.99,,,0.02,weatherlink.com 1.10,2013-07-05 06:51:00,
2013-07-05 02:06:00,68.6,65.0,30.10,SSE,150,7.0,-999.0,87,-99.99,,,0.02,weatherlink.com 1.10,2013-07-05 07:06:00,
2013-07-05 02:21:00,68.7,65.0,30.10,SE,144,8.0,-999.0,87,-99.99,,,0.02,weatherlink.com 1.10,2013-07-05 07:21:00,
2013-07-05 02:36:00,68.8,65.0,30.10,SE,146,4.0,-999.0,87,-99.99,,,0.03,weatherlink.com 1.10,2013-07-05 07:36:00,
2013-07-05 02:51:00,68.8,65.0,30.10,SSE,159,5.0,-999.0,87,-99.99,,,0.03,weatherlink.com 1.10,2013-07-05 07:51:00,
2013-07-05 03:06:00,68.8,65.0,30.10,SE,144,10.0,-999.0,87,-99.99,,,0.03,weatherlink.com 1.10,2013-07-05 08:06:00,
2013-07-05 03:21:00,68.8,65.0,30.10,SE,141,10.0,-999.0,87,-99.99,,,0.03,weatherlink.com 1.10,2013-07-05 08:21:00,
2013-07-05 03:36:00,68.8,65.0,30.10,SE,146,4.0,-999.0,86,-99.99,,,0.03,weatherlink.com 1.10,2013-07-05 08:36:00,
2013-07-05 03:51:00,68.8,65.0,30.10,SSE,151,4.0,-999.0,86,-99.99,,,0.03,weatherlink.com 1.10,2013-07-05 08:51:00,
2013-07-05 04:21:00,68.8,65.0,30.11,SE,133,4.0,-999.0,86,-99.99,,,0.03,weatherlink.com 1.10,2013-07-05 09:21:00,
2013-07-05 04:36:00,68.9,65.0,30.11,SE,138,7.0,-999.0,86,-99.99,,,0.03,weatherlink.com 1.10,2013-07-05 09:36:00,
2013-07-05 05:06:00,69.0,65.0,30.12,SSE,157,2.0,-999.0,86,-99.99,,,0.03,weatherlink.com 1.10,2013-07-05 10:06:00,
2013-07-05 06:06:00,69.1,65.0,30.13,SSE,157,0.0,-999.0,86,-99.99,,,0.03,weatherlink.com 1.10,2013-07-05 11:06:00,
2013-07-05 06:21:00,69.1,65.0,30.13,SSE,161,2.0,-999.0,86,-99.99,,,0.03,weatherlink.com 1.10,2013-07-05 11:21:00,
2013-07-05 06:36:00,69.1,65.0,30.14,SE,146,6.0,-999.0,86,-99.99,,,0.03,weatherlink.com 1.10,2013-07-05 11:36:00,
2013-07-05 06:51:00,69.2,65.0,30.14,SSE,153,8.0,-999.0,86,-99.99,,,0.03,weatherlink.com 1.10,2013-07-05 11:51:00,
2013-07-05 07:06:00,69.3,65.0,30.14,SE,139,9.0,-999.0,86,-99.99,,,0.03,weatherlink.com 1.10,2013-07-05 12:06:00,
2013-07-05 07:21:00,69.4,65.0,30.14,ESE,121,4.0,-999.0,86,-99.99,,,0.03,weatherlink.com 1.10,2013-07-05 12:21:00,
2013-07-05 07:36:00,69.6,66.0,30.15,SSE,147,10.0,-999.0,87,-99.99,,,0.03,weatherlink.com 1.10,2013-07-05 12:36:00,
2013-07-05 07:51:00,69.7,66.0,30.15,SSE,160,7.0,-999.0,87,-99.99,,,0.03,weatherlink.com 1.10,2013-07-05 12:51:00,
2013-07-05 08:21:00,70.4,67.0,30.17,SE,125,7.0,-999.0,88,-99.99,,,0.03,weatherlink.com 1.10,2013-07-05 13:21:00,
2013-07-05 08:36:00,70.6,67.0,30.17,SSE,150,11.0,-999.0,88,-99.99,,,0.03,weatherlink.com 1.10,2013-07-05 13:36:00,
2013-07-05 09:21:00,71.8,68.0,30.16,ESE,113,14.0,-999.0,88,-99.99,,,0.04,weatherlink.com 1.10,2013-07-05 14:21:00,
2013-07-05 09:36:00,72.7,69.0,30.17,SE,136,13.0,-999.0,88,-99.99,,,0.04,weatherlink.com 1.10,2013-07-05 14:36:00,
2013-07-05 09:51:00,72.6,69.0,30.17,SSE,148,12.0,-999.0,87,-99.99,,,0.04,weatherlink.com 1.10,2013-07-05 14:51:00,
2013-07-05 10:06:00,72.4,69.0,30.17,SSE,152,12.0,-999.0,88,-99.99,,,0.04,weatherlink.com 1.10,2013-07-05 15:06:00,
2013-07-05 10:21:00,72.6,69.0,30.17,SE,146,9.0,-999.0,88,-99.99,,,0.04,weatherlink.com 1.10,2013-07-05 15:21:00,
2013-07-05 10:36:00,72.3,69.0,30.18,South,180,6.0,-999.0,88,-99.99,,,0.04,weatherlink.com 1.10,2013-07-05 15:36:00,
2013-07-05 10:51:00,71.9,68.0,30.18,SE,136,7.0,-999.0,88,-99.99,,,0.04,weatherlink.com 1.10,2013-07-05 15:51:00,
2013-07-05 11:06:00,71.6,68.0,30.19,SSE,167,8.0,-999.0,88,-99.99,,,0.04,weatherlink.com 1.10,2013-07-05 16:06:00,
2013-07-05 11:21:00,71.4,68.0,30.19,SSE,148,19.0,-999.0,88,-99.99,,,0.04,weatherlink.com 1.10,2013-07-05 16:21:00,
2013-07-05 11:36:00,71.2,68.0,30.18,SE,144,8.0,-999.0,88,-99.99,,,0.04,weatherlink.com 1.10,2013-07-05 16:36:00,
2013-07-05 11:51:00,71.0,67.0,30.18,SSE,159,7.0,-999.0,88,-99.99,,,0.04,weatherlink.com 1.10,2013-07-05 16:51:00,
2013-07-05 12:06:00,71.5,68.0,30.18,SE,144,9.0,-999.0,88,-99.99,,,0.04,weatherlink.com 1.10,2013-07-05 17:06:00,
2013-07-05 12:21:00,72.0,69.0,30.18,SSE,163,6.0,-999.0,89,-99.99,,,0.04,weatherlink.com 1.10,2013-07-05 17:21:00,
2013-07-05 12:37:00,71.7,68.0,30.18,SSE,167,6.0,-999.0,88,-99.99,,,0.04,weatherlink.com 1.10,2013-07-05 17:37:00,
2013-07-05 12:51:00,71.3,68.0,30.17,SE,137,19.0,-999.0,88,-99.99,,,0.04,weatherlink.com 1.10,2013-07-05 17:51:00,
2013-07-05 13:07:00,71.2,68.0,30.18,SE,138,10.0,-999.0,88,-99.99,,,0.04,weatherlink.com 1.10,2013-07-05 18:07:00,
2013-07-05 13:22:00,71.1,67.0,30.18,SE,127,11.0,-999.0,88,-99.99,,,0.04,weatherlink.com 1.10,2013-07-05 18:22:00,
2013-07-05 13:37:00,70.9,67.0,30.18,SSE,167,10.0,-999.0,87,-99.99,,,0.04,weatherlink.com 1.10,2013-07-05 18:37:00,
2013-07-05 13:52:00,70.6,67.0,30.18,SE,146,11.0,-999.0,87,-99.99,,,0.04,weatherlink.com 1.10,2013-07-05 18:52:00,
2013-07-05 14:07:00,71.4,68.0,30.18,SE,144,4.0,-999.0,88,-99.99,,,0.04,weatherlink.com 1.10,2013-07-05 19:07:00,
2013-07-05 14:22:00,71.9,69.0,30.17,SSE,147,8.0,-999.0,89,-99.99,,,0.04,weatherlink.com 1.10,2013-07-05 19:22:00,
2013-07-05 14:37:00,72.1,68.0,30.16,SE,144,6.0,-999.0,88,-99.99,,,0.04,weatherlink.com 1.10,2013-07-05 19:37:00,
2013-07-05 14:52:00,72.1,68.0,30.16,South,180,4.0,-999.0,88,-99.99,,,0.04,weatherlink.com 1.10,2013-07-05 19:52:00,
2013-07-05 15:07:00,72.2,69.0,30.16,SE,138,7.0,-999.0,88,-99.99,,,0.04,weatherlink.com 1.10,2013-07-05 20:07:00,
2013-07-05 15:22:00,72.3,69.0,30.15,SE,135,0.0,-999.0,88,-99.99,,,0.04,weatherlink.com 1.10,2013-07-05 20:22:00,
2013-07-05 15:37:00,72.2,69.0,30.14,SSE,150,2.0,-999.0,88,-99.99,,,0.04,weatherlink.com 1.10,2013-07-05 20:37:00,
2013-07-05 15:52:00,72.2,69.0,30.14,ESE,118,5.0,-999.0,88,-99.99,,,0.04,weatherlink.com 1.10,2013-07-05 20:52:00,
2013-07-05 16:07:00,72.3,69.0,30.14,SE,134,5.0,-999.0,88,-99.99,,,0.04,weatherlink.com 1.10,2013-07-05 21:07:00,
2013-07-05 16:22:00,72.3,69.0,30.13,SE,137,6.0,-999.0,88,-99.99,,,0.04,weatherlink.com 1.10,2013-07-05 21:22:00,
2013-07-05 16:37:00,72.4,69.0,30.13,East,98,4.0,-999.0,88,-99.99,,,0.04,weatherlink.com 1.10,2013-07-05 21:37:00,
2013-07-05 16:52:00,72.5,69.0,30.13,ESE,123,5.0,-999.0,88,-99.99,,,0.00,weatherlink.com 1.10,2013-07-05 21:52:00,
2013-07-05 17:07:00,72.6,69.0,30.13,ESE,110,8.0,-999.0,88,-99.99,,,0.00,weatherlink.com 1.10,2013-07-05 22:07:00,
2013-07-05 17:22:00,72.3,69.0,30.13,East,99,4.0,-999.0,88,-99.99,,,0.00,weatherlink.com 1.10,2013-07-05 22:22:00,
2013-07-05 17:37:00,72.3,69.0,30.13,ESE,117,7.0,-999.0,88,-99.99,,,0.00,weatherlink.com 1.10,2013-07-05 22:37:00,
2013-07-05 17:52:00,72.3,69.0,30.13,ESE,122,2.0,-999.0,88,-99.99,,,0.00,weatherlink.com 1.10,2013-07-05 22:52:00,
2013-07-05 18:07:00,72.2,69.0,30.14,ESE,115,7.0,-999.0,88,-99.99,,,0.00,weatherlink.com 1.10,2013-07-05 23:07:00,
2013-07-05 18:22:00,72.2,69.0,30.13,SE,128,7.0,-999.0,89,-99.99,,,0.00,weatherlink.com 1.10,2013-07-05 23:22:00,
2013-07-05 18:37:00,72.2,69.0,30.14,ESE,113,2.0,-999.0,89,-99.99,,,0.01,weatherlink.com 1.10,2013-07-05 23:37:00,
2013-07-05 18:52:00,72.2,69.0,30.14,ESE,115,0.0,-999.0,89,-99.99,,,0.01,weatherlink.com 1.10,2013-07-05 23:52:00,
2013-07-05 19:07:00,72.0,69.0,30.14,ESE,114,4.0,-999.0,89,-99.99,,,0.01,weatherlink.com 1.10,2013-07-06 00:07:00,
2013-07-05 19:22:00,72.0,68.0,30.14,ESE,119,5.0,-999.0,88,-99.99,,,0.01,weatherlink.com 1.10,2013-07-06 00:22:00,
2013-07-05 19:37:00,72.0,69.0,30.14,ESE,117,9.0,-999.0,89,-99.99,,,0.01,weatherlink.com 1.10,2013-07-06 00:37:00,
2013-07-05 19:52:00,71.9,69.0,30.14,ESE,102,5.0,-999.0,89,-99.99,,,0.01,weatherlink.com 1.10,2013-07-06 00:52:00,
2013-07-05 20:07:00,71.8,69.0,30.14,ESE,117,5.0,-999.0,89,-99.99,,,0.01,weatherlink.com 1.10,2013-07-06 01:07:00,
2013-07-05 20:22:00,71.7,68.0,30.14,ESE,118,1.0,-999.0,89,-99.99,,,0.01,weatherlink.com 1.10,2013-07-06 01:22:00,
2013-07-05 20:37:00,71.6,68.0,30.14,East,87,6.0,-999.0,89,-99.99,,,0.01,weatherlink.com 1.10,2013-07-06 01:37:00,
2013-07-05 20:52:00,71.3,68.0,30.14,ESE,123,9.0,-999.0,89,-99.99,,,0.01,weatherlink.com 1.10,2013-07-06 01:52:00,
2013-07-05 21:07:00,71.2,68.0,30.14,ESE,113,8.0,-999.0,89,-99.99,,,0.01,weatherlink.com 1.10,2013-07-06 02:07:00,
2013-07-05 21:22:00,71.2,68.0,30.14,SE,134,6.0,-999.0,88,-99.99,,,0.01,weatherlink.com 1.10,2013-07-06 02:22:00,
2013-07-05 21:37:00,71.2,68.0,30.14,SSE,159,6.0,-999.0,88,-99.99,,,0.01,weatherlink.com 1.10,2013-07-06 02:37:00,
2013-07-05 21:52:00,70.9,67.0,30.14,SE,131,7.0,-999.0,88,-99.99,,,0.01,weatherlink.com 1.10,2013-07-06 02:52:00,
2013-07-05 22:07:00,71.0,67.0,30.14,ESE,112,0.0,-999.0,87,-99.99,,,0.01,weatherlink.com 1.10,2013-07-06 03:07:00,
2013-07-05 22:22:00,71.0,67.0,30.14,ESE,112,0.0,-999.0,87,-99.99,,,0.01,weatherlink.com 1.10,2013-07-06 03:22:00,
2013-07-05 22:37:00,70.9,67.0,30.14,SE,130,4.0,-999.0,86,-99.99,,,0.01,weatherlink.com 1.10,2013-07-06 03:37:00,
2013-07-05 22:52:00,70.6,66.0,30.14,SW,219,0.0,-999.0,86,-99.99,,,0.01,weatherlink.com 1.10,2013-07-06 03:52:00,
2013-07-05 23:08:00,70.6,66.0,30.14,SE,128,0.0,-999.0,86,-99.99,,,0.01,weatherlink.com 1.10,2013-07-06 04:08:00,
2013-07-05 23:23:00,70.7,66.0,30.14,SE,128,0.0,-999.0,85,-99.99,,,0.01,weatherlink.com 1.10,2013-07-06 04:23:00,
2013-07-05 23:37:00,70.7,66.0,30.14,ESE,109,0.0,-999.0,85,-99.99,,,0.01,weatherlink.com 1.10,2013-07-06 04:37:00,
2013-07-05 23:53:00,70.6,66.0,30.14,ESE,109,0.0,-999.0,85,-99.99,,,0.01,weatherlink.com 1.10,2013-07-06 04:53:00,